User: anonymous
Location: Innerarity Island Observatory
(30.3139°N, 87.4867°W)
Time: 12:52:58
(UTC-05:00)
Language:

JAS-2 - Orbit

View from above orbital plane
View from above orbital plane
View from above satellite
View from above satellite

Ground track
Ground track

The orbit data is extracted from the following two-line orbital elements,

1 24278U 96046B   14271.61639525  .00000053  00000-0  88923-4 0  4874
2 24278 098.5156 271.2018 0350815 029.4573 104.2888 13.53029852894653
Epoch (UTC): 28 September 2014 14:47:36
Eccentricity: 0.0350815
inclination: 98.5156°
perigee height: 800 km
apogee height: 1322 km
right ascension of ascending node: 271.2018°
argument of perigee: 29.4573°
revolutions per day: 13.53029852
mean anomaly at epoch: 104.2888°
orbit number at epoch: 89465

The dashed part of the orbit path shows where the satellite is in the earth's shadow,  

DLR